Regional Weather Roundup
Issued by NWS

Home | Current Version | Previous Version | Text Only | Print | Product List | Glossary On
Versions: 1 2 3 4 5 6 7 8 9 10 11 12 13 14 15 16 17 18 19 20 21 22 23 24 25 26 27 28 29 30 31 32 33 34 35 36 37 38 39 40 41 42 43 44 45 46 47 48 49 50
000
ASUS43 KIND 030209
RWRIN

WEATHER ROUNDUP FOR INDIANA
NATIONAL WEATHER SERVICE INDIANAPOLIS IN
1000 PM EDT TUE SEP 02 2014

NOTE: "FAIR" INDICATES FEW OR NO CLOUDS BELOW 12,000 FEET WITH NO
SIGNIFICANT WEATHER AND/OR OBSTRUCTIONS TO VISIBILITY.

* - STATION DOES NOT REPORT WEATHER SUCH AS PRECIPITATION OR FOG.

+ - STATION NOT QUALITY CONTROLLED BY THE NATIONAL WEATHER SERVICE.
    USE DATA WITH CAUTION...ESPECIALLY DEWPOINT AND RELATIVE
    HUMIDITY OBSERVATIONS.

INZ001>003-010>013-019-020-030300-
NORTHWEST INDIANA

CITY           SKY/WX    TMP DP  RH WIND       PRES   REMARKS
KNOX *+        MOCLDY    68  64  88 NE3       29.93R
LA PORTE +     PTCLDY    64  64 100 CALM      29.95R
MICHIGAN CITY+ CLEAR     64  64 100 SE3       29.94R
MONTICELLO +   MOCLDY    69  68  96 SW3       29.94R
RENSSELAER +   PTCLDY    64  64 100 CALM      29.95R
VALPARAISO     CLEAR     68  64  87 E3        29.95R

$$

LMZ046-743>745-030300-
SOUTHERN LAKE MICHIGAN

STATION/POSITION TIME  TEMP WIND        PRES
                       AIR  DIR/SP/G
                 (UTC) (F)  (DEG/KT/KT) (MB)
MICHIGAN CITY    0200   73  120/  6/  6   N/A

$$

INZ004-005-014>016-021>024-030300-
NORTH CENTRAL INDIANA

CITY           SKY/WX    TMP DP  RH WIND       PRES   REMARKS
GOSHEN         CLEAR     66  63  90 CALM      29.95R
LOGANSPORT +   PTCLDY    66  63  88 S3        29.96R
PERU/GRISSOM   PTCLDY    67  67 100 SW7       29.96R
ROCHESTER +    PTCLDY    68  64  88 CALM      29.96R
SOUTH BEND     CLEAR     67  60  78 CALM      29.95R
WARSAW +       PTCLDY    64  63  94 CALM      29.95R

$$

INZ006>009-017-018-025>027-030300-
NORTHEAST INDIANA

CITY           SKY/WX    TMP DP  RH WIND       PRES   REMARKS
ANGOLA *+      CLEAR     63  57  82 CALM      29.96R
AUBURN +       PTCLDY    66  61  82 CALM      29.97R
FORT WAYNE     MOCLDY    67  64  90 SW3       29.96R
HUNTINGTON +   CLOUDY    72  67  84 W7        29.95S

$$

INZ028-029-035-036-043>045-051>053-030300-
WEST CENTRAL INDIANA

CITY           SKY/WX    TMP DP  RH WIND       PRES   REMARKS
GREENCASTLE +  CLEAR     66  66 100 CALM      29.99R FOG
LAFAYETTE      PTCLDY    69  68  96 CALM      29.95R
TERRE HAUTE    CLEAR     68  66  93 CALM      29.99R

$$

INZ030>032-037>040-046>048-054>057-064-065-030300-
CENTRAL INDIANA

CITY           SKY/WX    TMP DP  RH WIND       PRES   REMARKS
CP ATTERBURY + FOG       68  66  94 CALM      29.99R VSB<1/4
COLUMBUS       PTCLDY    72  70  94 CALM      29.97S
FISHERS *+     CLEAR     64  64 100 CALM      29.98
FRANKFORT +    PTCLDY   N/A N/A N/A CALM      29.98R
GREENWOOD *+   CLEAR     68  68 100 CALM      29.99
INDIANAPOLIS   CLEAR     70  65  84 SW5       29.97R
-EAGLE CREEK   CLEAR     69  65  86 CALM      29.97R
KOKOMO *+      PTCLDY    68  64  88 SW6       29.96R
MARION +       PTCLDY    67  65  93 SW5       29.97R
MT COMFORT *+  CLEAR     66 N/A N/A CALM      29.99R
SHELBYVILLE    CLEAR     69  65  86 SW3       29.98R
ZIONSVILLE +   CLEAR     68  65  88 CALM      29.98R

$$

INZ033-034-041-042-049-050-058-059-030300-
EAST CENTRAL INDIANA

CITY           SKY/WX    TMP DP  RH WIND       PRES   REMARKS
MUNCIE         CLEAR     71  65  81 SW6       29.97R

$$

INZ060-061-067>069-081>083-085>088-030300-
SOUTHWEST INDIANA

CITY           SKY/WX    TMP DP  RH WIND       PRES   REMARKS
EVANSVILLE     CLEAR     75  70  84 CALM      29.98R
WASHINGTON +   CLEAR     67  67 100 CALM      29.98R

$$

INZ062-063-066-070>080-084-089>092-030300-
SOUTH CENTRAL AND SOUTHEAST INDIANA

CITY           SKY/WX    TMP DP  RH WIND       PRES   REMARKS
BEDFORD +      CLEAR     68  66  94 CALM      29.99  FOG
BLOOMINGTON    PTCLDY    68  66  93 CALM      29.99R FOG
NORTH VERNON + FOG       68  68 100 CALM      29.98  VSB 1/2
SEYMOUR +      CLEAR     68  61  77 CALM      29.98  HAZE

$$



USA.gov is the U.S. government's official web portal to all federal, state and local government web resources and services.